#timestamp,LO_Frequency,Hit,StdDev 
1682586015.5,286047002.1,N
1682586035.3,286047002.7,N
1682586055.1,286047000.4,N
1682586075.9,286046999.9,N
1682586095.7,286047002.6,N
1682586115.6,286047002.6,N
1682586135.4,286047001.4,N
1682586155.2,286047004.3,Y
1682586175.1,286047002.0,P
1682586176.0,286047002.0,P
1682586195.8,286047000.0,N
1682586215.6,286047002.4,N
1682586235.5,286047001.6,N
1682586255.3,286047002.0,N
1682586275.2,286047002.0,N
1682586295.9,286047002.2,Y
1682586315.7,286047000.8,P
1682586335.6,286047001.0,N
1682586355.4,286047000.9,N
1682586375.3,286047000.7,N
1682586395.1,286047000.4,N
1682586396.0,286047000.4,N
1682586415.8,286046999.7,N
1682586435.7,286046999.7,N
1682586455.5,286047002.2,Y
1682586475.3,286047002.3,P
1682586495.2,286047002.1,N
1682586515.0,286047002.2,N
1682586515.9,286047002.2,Y
1682586535.8,286047000.8,P
1682586555.6,286047001.2,N
1682586575.4,286047001.1,N
1682586595.3,286046998.3,Y
1682586615.1,286046997.0,P
1682586635.8,286046996.6,N
1682586655.7,286046999.5,N
1682586675.5,286046996.9,N
1682586695.4,286046999.4,N
1682586715.2,286046999.6,N
1682586735.0,286046998.6,N
1682586735.9,286046998.6,N
1682586755.8,286046996.9,N
1682586775.6,286046999.1,N
1682586795.5,286046999.0,N
1682586815.3,286046998.9,N
1682586835.1,286046999.0,N
1682586855.9,286046999.0,N
1682586875.7,286046998.5,N
1682586895.5,286046998.1,N
1682586915.4,286046998.3,N
1682586935.2,286046998.6,N
1682586955.0,286046998.2,N
1682586956.0,286046998.2,N
1682586975.8,286047001.2,N
1682586995.6,286046998.2,N
1682587015.5,286046998.2,N
1682587035.3,286047001.1,N
1682587055.1,286047011.9,Y
1682587075.9,286046998.1,P
1682587095.7,286047002.4,P
1682587115.6,286046999.7,N
1682587135.4,286047001.5,N
1682587155.2,286047001.4,N
1682587175.1,286047002.0,N
1682587176.0,286047002.0,N
1682587195.8,286047000.1,N
1682587215.6,286047000.6,N
1682587235.5,286047000.4,N
1682587255.3,286047000.9,N
1682587275.2,286046998.1,N
1682587295.9,286047000.6,N
1682587315.7,286047000.4,N
1682587335.6,286047001.0,N
1682587355.4,286047000.5,N
1682587375.2,286046999.8,N
1682587395.1,286047002.6,N
1682587396.0,286047002.6,N
1682587415.8,286047000.0,N
1682587435.6,286046999.7,N
1682587455.5,286047000.4,N
1682587475.3,286047000.2,N
1682587495.2,286047000.2,N
1682587515.9,286047002.0,N
1682587535.7,286047003.4,N
1682587555.6,286047003.0,N
1682587575.4,286047005.5,Y
1682587595.2,286047003.9,P
1682587615.1,286047003.8,N
1682587616.0,286047003.8,N
1682587635.8,286047002.0,N
1682587655.7,286047002.8,N
1682587675.5,286047001.6,N
1682587695.3,286047001.9,N
1682587715.2,286047003.1,N
1682587735.0,286047003.4,Y
1682587735.9,286047003.4,P
1682587755.7,286047002.8,P
1682587775.6,286047000.1,N
1682587795.4,286047002.5,N
1682587815.3,286047002.4,N
1682587835.1,286047002.8,N
1682587836.0,286047002.8,N
1682587855.8,286047000.9,N
1682587875.7,286047001.0,N
1682587895.5,286047001.0,N
1682587915.3,286046998.3,N
1682587935.2,286047000.5,N
1682587955.0,286047000.3,N
1682587955.9,286047000.3,N
1682587975.8,286047000.7,N
1682587995.6,286046999.9,N
1682588015.4,286047000.9,N
1682588035.3,286046998.2,N
1682588055.1,286046997.7,N
1682588075.8,286046993.3,Y
1682588095.7,286046992.2,P
1682588115.5,286046991.7,N
1682588135.4,286046991.7,N
1682588155.2,286046994.3,N
1682588175.0,286046992.3,N
1682588175.9,286046992.3,N
1682588195.8,286046992.5,N
1682588215.6,286046990.3,Y
1682588235.5,286046996.5,P
1682588255.3,286046996.9,N
1682588275.1,286046997.2,N
1682588295.9,286046994.9,Y
1682588315.7,286047000.0,P
1682588335.5,286047000.1,N
1682588355.4,286047001.0,N
1682588375.2,286047001.2,N
1682588395.1,286046998.9,N
1682588396.0,286046998.9,N
1682588415.8,286047000.9,N
1682588465.7,286046999.1,E
1682588475.6,286046996.7,N
1682588495.4,286046998.7,P
1682588515.3,286046999.5,N
1682588535.1,286046999.3,N
1682588536.0,286046999.3,N
1682588555.8,286046998.7,N
1682588575.7,286046996.5,Y
1682588595.5,286046998.6,P
1682588615.3,286046998.2,P
1682588635.2,286047001.1,P
1682588655.0,286047002.3,N
1682588655.9,286047002.3,N
1682588675.8,286046998.7,N
1682588695.6,286046995.6,N
1682588715.4,286046996.0,N
1682588735.3,286046996.2,N
1682588755.1,286046995.4,N
1682588775.8,286046997.0,N
1682588795.7,286046999.5,N
1682588815.5,286046997.3,N
1682588835.4,286046997.9,N
1682588855.2,286046999.6,N
1682588875.0,286046997.4,N
1682588875.9,286046997.4,N
1682588895.8,286046999.1,N
1682588915.6,286046998.2,N
1682588935.4,286046999.9,N
1682588955.3,286046999.7,N
1682588975.1,286047000.8,N
1682588995.9,286046996.9,N
1682589015.7,286046997.0,N
1682589035.5,286046999.5,N
1682589055.4,286046998.8,N
1682589075.2,286046998.2,N
1682589095.0,286047000.2,N
1682589095.9,286047000.2,N
1682589115.8,286046998.3,N
1682589135.6,286046996.5,N
1682589155.5,286046997.1,N
1682589175.3,286046995.5,N
1682589195.1,286046995.9,N
1682589215.9,286046993.7,Y
1682589235.7,286046997.2,P
1682589255.5,286046999.2,N
1682589275.4,286047001.1,N
1682589295.2,286047004.2,N
1682589315.1,286047005.4,N
1682589316.0,286047005.4,N
1682589335.8,286047004.6,N
1682589355.6,286047006.0,N
1682589375.5,286047004.4,N
1682589395.3,286047001.5,N
1682589415.1,286047001.5,N
1682589435.9,286047003.9,N
1682589455.7,286047003.1,N
1682589475.6,286047005.5,N
1682589495.4,286047005.5,N
1682589515.2,286047003.2,N
1682589535.1,286047006.0,N
1682589536.0,286047006.0,N
1682589555.8,286047005.7,N
1682589575.6,286047005.7,N
1682589595.5,286047005.4,N
